Findlay, OH

12:54 PM EDT on September 23, 2019 (GMT -0400)
Findlay

Weather History for KFDY - July, 2019

Change the Weather History Date:

Tuesday, July 30, 2019

  Actual Average Record
Temperature  
Mean Temperature 78 °F -  
Max Temperature 87 °F 79 °F 95 °F (1955)
Min Temperature 71 °F 60 °F 50 °F (1965)
Cooling Degree Days 14    
Growing Degree Days 28 (Base 50)    
Moisture  
Dew Point 67 °F    
Average Humidity 74    
Maximum Humidity 91    
Minimum Humidity 44    
Precipitation  
Precipitation 0.00 in - - ()
Sea Level Pressure  
Sea Level Pressure 29.95 in    
Wind  
Wind Speed 6 mph (WSW)    
Max Wind Speed 10 mph    
Max Gust Speed -    
Visibility 10 miles    
Events      
Averages and records for this station are not official NWS values.
T = Trace of Precipitation, MM = Missing Value Source: NWS Daily Summary

Daily Weather History Graph

Daily Weather History Graph

Search for Another Location

Airport or City:

Astronomy

Jul. 30, 2019 Rise Set
Actual Time 6:28 AM EDT 8:53 PM EDT
Civil Twilight 5:57 AM EDT 9:24 PM EDT
Nautical Twilight 5:18 AM EDT 10:02 PM EDT
Astronomical Twilight 4:35 AM EDT 10:45 PM EDT
Moon 4:35 AM EDT (7/30) 7:57 PM EDT (7/30)
Length of Visible Light 15h 26m
Length of Day
14h 24m
Waning Crescent, 3% of the Moon is Illuminated
Jul 30
Waning Crescent
Jul 31
New
Aug 7
First Quarter
Aug 15
Full
Aug 23
Last Quarter

Hourly Weather History & Observations

Time (EDT) Temp. Heat Index Dew Point Humidity Pressure Visibility Wind Dir Wind Speed Gust Speed Precip Events Conditions
12:53 AM 71.1 °F - 68.0 °F 90% 29.90 in 10.0 mi SSW 5.8 mph - N/A   Partly Cloudy
1:25 AM 72.0 °F - 68.0 °F 87% 29.93 in 10.0 mi SW 5.8 mph - N/A   Mostly Cloudy
1:53 AM 72.0 °F - 68.0 °F 87% 29.90 in 10.0 mi SSW 8.1 mph - N/A   Overcast
2:53 AM 72.0 °F - 68.0 °F 87% 29.89 in 10.0 mi SSW 8.1 mph - N/A   Overcast
3:53 AM 72.0 °F - 69.1 °F 91% 29.90 in 10.0 mi SW 5.8 mph - N/A   Overcast
4:53 AM 72.0 °F - 69.1 °F 91% 29.90 in 10.0 mi SW 6.9 mph - 0.00 in   Overcast
5:20 AM 72.0 °F - 69.1 °F 91% 29.93 in 9.0 mi WSW 5.8 mph - N/A   Overcast
5:53 AM 72.0 °F - 69.1 °F 91% 29.91 in 9.0 mi WSW 5.8 mph - N/A   Overcast
6:11 AM 72.0 °F - 69.1 °F 91% 29.94 in 10.0 mi SW 6.9 mph - N/A   Overcast
6:53 AM 73.0 °F - 69.1 °F 87% 29.93 in 10.0 mi West 3.5 mph - N/A   Overcast
7:34 AM 73.0 °F - 70.0 °F 90% 29.97 in 10.0 mi SW 5.8 mph - N/A   Overcast
8:36 AM 73.9 °F - 69.1 °F 85% 29.98 in 10.0 mi SW 5.8 mph - N/A   Mostly Cloudy
8:53 AM 75.0 °F - 70.0 °F 84% 29.96 in 10.0 mi WSW 8.1 mph - N/A   Scattered Clouds
9:49 AM 75.2 °F - 69.8 °F 83% 29.99 in 10.0 mi WSW 6.9 mph - N/A   Mostly Cloudy
9:53 AM 75.9 °F - 69.1 °F 79% 29.97 in 10.0 mi WSW 6.9 mph - N/A   Mostly Cloudy
10:10 AM 77.0 °F - 70.0 °F 79% 30.00 in 10.0 mi Variable 5.8 mph - N/A   Mostly Cloudy
10:53 AM 77.0 °F - 69.1 °F 76% 29.98 in 10.0 mi SW 4.6 mph - N/A   Mostly Cloudy
11:53 AM 79.0 °F - 68.0 °F 69% 29.98 in 10.0 mi Calm Calm - N/A   Mostly Cloudy
12:53 PM 81.0 °F 83.3 °F 66.9 °F 62% 29.98 in 10.0 mi SSW 4.6 mph - N/A   Mostly Cloudy
1:53 PM 84.0 °F 85.8 °F 64.9 °F 53% 29.96 in 10.0 mi Variable 3.5 mph - N/A   Scattered Clouds
2:53 PM 86.0 °F 87.3 °F 64.0 °F 48% 29.95 in 10.0 mi Variable 5.8 mph - N/A   Partly Cloudy
3:53 PM 86.0 °F 86.8 °F 63.0 °F 46% 29.93 in 10.0 mi North - - N/A   Clear
4:53 PM 86.0 °F 86.3 °F 62.1 °F 44% 29.92 in 10.0 mi West 10.4 mph - N/A   Clear
5:53 PM 86.0 °F 86.3 °F 62.1 °F 44% 29.92 in 10.0 mi Variable 6.9 mph - N/A   Clear
6:53 PM 84.9 °F 85.0 °F 61.0 °F 44% 29.92 in 10.0 mi West 8.1 mph - N/A   Clear
7:53 PM 82.9 °F 84.0 °F 63.0 °F 51% 29.94 in 10.0 mi West 4.6 mph - N/A   Clear
8:53 PM 79.0 °F - 63.0 °F 58% 29.95 in 10.0 mi WNW 4.6 mph - N/A   Clear
9:53 PM 75.0 °F - 66.0 °F 73% 29.98 in 10.0 mi South 3.5 mph - N/A   Clear
10:53 PM 73.9 °F - 66.0 °F 76% 29.98 in 10.0 mi WNW 4.6 mph - N/A   Clear
11:53 PM 73.9 °F - 64.9 °F 73% 29.99 in 10.0 mi NW 5.8 mph - N/A   Clear